Fort Chipewyan Airport
CYPY : now visible

Airfield :











YOU CAN JOIN US ON...

 
LOGIN :

Register | Disclaimer

   EN    FR    IT 

 









Legend :    VFR   Marginal VFR   IFR   Intensive IFR   Very Intensive IFR
Visi :
Ceiling :
>= 8 km
>= 3000ft
5 to 8 km
1000 to 3000 ft
1500m to 5 km
500 to 1000 ft
800 to 1500m
200 to 500 ft
< 800m
< 200 ft
Symbols :   Thunderstorms  Fog  Heavy snow  Heavy precipitations  Wind > 20 kt






- Airport Elevation : 761 ft
- IATA code : YPY


CYPY - Fort Chipewyan

CURRENT METAR :
  • 230600Z AUTO 29004KT 250V320 9SM CLR M31/M34 A3027 RMK SLP277

EXPIRED METARs :
  • 230500Z AUTO 32005KT 9SM CLR M30/M33 A3025 RMK SLP274
  • 230400Z AUTO 27003KT 230V310 9SM CLR M30/M33 A3024 RMK SLP270

Expired Forecast.
CZEG FIR / North America



MET'MAP, your aeronautical weather chart ! - Copyright ORBIFLY December 2007 - Disclaimer

ORBIFLY MET'MAP TEAM :

Programming & Development : Alexandra Zaïnal
Concept & original design : Baudouin d'Aumeries
Assistance for programming : Marc-Olivier Méhu
Technical & hardware support : Manuel Goepfert

Contact : metmap@orbifly.com




SOURCES & CREDITS :

   NOAA       Earth
Advisory